Tracking 28799 objects as of 18-Apr-2024
HD Live streaming from Space Station
objects crossing your sky now

ATLAS 5 CENTAUR R/B

Track ATLAS 5 CENTAUR R/B now!


NORAD ID: 28473
Int'l Code: 2004-048B
Perigee: 4,800.3 km
Apogee: 34,626.5 km
Inclination: 18.5 °
Period: 698.8 minutes
Semi major axis: 26084 km
RCS: 18.2224 m2 (large)
Launch date: December 17, 2004
Source: United States (US)
Launch site: AIR FORCE EASTERN TEST RANGE (AFETR)

Note: This is a ROCKET BODY
Your satellite tracking list
Your tracking list is empty




NASA's NSSDC Master Catalog

Two Line Element Set (TLE):
1 28473U 04048B   24108.58612323  .00000043  00000-0  00000-0 0  9992
2 28473  18.5205  85.5114 5717262 203.6838 113.6615  2.06078201145549
Source of the keplerian elements: AFSPC